Regional Weather Roundup
Issued by NWS Nashville, TN

Home | Current Version | Previous Version | Text Only | Print | Product List | Glossary On
Versions: 1 2 3 4 5 6 7 8 9 10 11 12 13 14 15 16 17 18 19 20 21 22 23 24 25 26 27 28 29 30 31 32 33 34 35 36 37 38 39 40 41 42 43 44 45 46 47 48 49 50
000
ASUS44 KOHX 190610
RWROHX
MIDDLE TENNESSEE HOURLY WEATHER ROUNDUP
NATIONAL WEATHER SERVICE NASHVILLE TN
1200 AM CST FRI JAN 19 2018

NOTE: "FAIR" INDICATES FEW OR NO CLOUDS BELOW 12,000 FEET WITH
NO SIGNIFICANT WEATHER AND/OR OBSTRUCTIONS TO VISIBILITY.

* THESE REPORTS ARE NOT UNDER NWS QUALITY CONTROL AND MAY NOT
  REPORT WEATHER SUCH AS PRECIPITATION AND FOG.


TNZ005>011-023>034-057-059-062>066-078-080-190700
...NORTHERN MIDDLE TENNESSEE...

CITY           SKY/WX    TMP DP  RH WIND       PRES   REMARKS
CLARKSVILLE      N/A     17   8  67 S3        30.31F
CROSSVILLE       N/A     16  10  77 CALM      30.28F
GALLATIN       CLEAR     18  14  86 CALM      30.35F
NASHVILLE        N/A     23  14  68 S3        30.34F
PORTLAND       CLEAR     21  14  73 S7        30.30S WCI  13
SMYRNA           N/A     17  13  84 SE3       30.35F
SPARTA         CLEAR     14  10  85 CALM      30.32S
SPRINGFIELD    CLEAR     25  12  58 S8        30.29S WCI  16
WEST NASHVILLE CLEAR     23  18  80 CALM      30.31F
$$
TNZ056-058-060-061-075>077-079-093>097-190700
...SOUTHERN MIDDLE TENNESSEE...

CITY           SKY/WX    TMP DP  RH WIND       PRES   REMARKS
COLUMBIA       CLEAR     19  18  93 CALM      30.32F
FAYETTEVILLE   CLEAR     21  14  73 CALM      30.33F
MCMINNVILLE    CLEAR     16  12  86 CALM      30.33F
PULASKI        CLEAR     16  14  93 CALM      30.35F
SHELBYVILLE    CLEAR     16  14  93 SE5       30.34F WCI   9
TULLAHOMA      CLEAR     14  12  92 CALM      30.32F
WINCHESTER     CLEAR     18  14  86 CALM      30.34F
$$


...KEY TO REMARKS...
VSB - VISIBILITY IN MILES
WCI - WIND CHILL INDEX
HX  - HEAT INDEX




USA.gov is the U.S. government's official web portal to all federal, state and local government web resources and services.